Location: M?digepalle
(16.1753°N, 80.3496°E)
Time: 08:50:22
(UTC+00:00)

IUS-14 SRM-1 - Pass Details

Date: 29 October 2020
Orbit: 396 x 34418 km, 26.5° (Epoch: 26 November)

Event Time Altitude Azimuth Distance (km) Brightness Sun altitude
Rises 12:26:49 0° 250° (WSW) 11,374 12.0 -4.8°
Reaches altitude 10° 12:39:36 10° 253° (WSW) 6,476 10.0 -7.8°
Maximum altitude 12:52:20 67° 335° (NNW) 937 4.0 -10.8°
Enters shadow 12:55:09 15° 58° (ENE) 1,558 4.5 -11.5°
